Time,TemperatureF,DewpointF,PressureIn,WindDirection,WindDirectionDegrees,WindSpeedMPH,WindSpeedGustMPH,Humidity,HourlyPrecipIn,Conditions,Clouds,dailyrainin,SoftwareType,DateUTC
2013-10-10 00:52:00,48.0,-99.9,30.28,ENE,57,-999.0,-999.0,-999,0.00,,,-99.99,,2013-10-10 04:52:00,
2013-10-10 01:43:00,48.0,-99.9,30.28,ENE,57,-999.0,-999.0,-999,0.00,,,-99.99,,2013-10-10 05:43:00,
2013-10-10 01:52:00,49.0,-99.9,30.27,ENE,57,-999.0,-999.0,-999,0.00,,,-99.99,,2013-10-10 05:52:00,
2013-10-10 02:43:00,49.0,-99.9,30.27,ENE,57,-999.0,-999.0,-999,0.00,,,-99.99,,2013-10-10 06:43:00,
2013-10-10 02:52:00,50.0,-99.9,30.26,WNW,286,-999.0,-999.0,-999,0.00,,,-99.99,,2013-10-10 06:52:00,
2013-10-10 03:42:00,50.0,-99.9,30.26,WNW,286,-999.0,-999.0,-999,0.00,,,-99.99,,2013-10-10 07:42:00,
2013-10-10 03:52:00,50.0,-99.9,30.25,WNW,286,-999.0,-999.0,-999,0.00,,,-99.99,,2013-10-10 07:52:00,
2013-10-10 04:43:00,50.0,-99.9,30.25,WNW,286,-999.0,-999.0,-999,0.00,,,-99.99,,2013-10-10 08:43:00,
2013-10-10 04:52:00,49.0,-99.9,30.26,NNE,14,-999.0,5.0,-999,0.00,,,-99.99,,2013-10-10 08:52:00,
2013-10-10 05:43:00,49.0,-99.9,30.26,NNE,14,-999.0,5.0,-999,0.00,,,-99.99,,2013-10-10 09:43:00,
2013-10-10 05:52:00,49.0,-99.9,30.25,NNE,30,-999.0,5.0,-999,0.00,,,-99.99,,2013-10-10 09:52:00,
2013-10-10 06:43:00,49.0,-99.9,30.25,NNE,30,-999.0,5.0,-999,0.00,,,-99.99,,2013-10-10 10:43:00,
2013-10-10 06:52:00,49.0,-99.9,30.24,North,352,-999.0,8.0,-999,0.00,,,-99.99,,2013-10-10 10:52:00,
2013-10-10 07:42:00,49.0,-99.9,30.24,North,352,-999.0,8.0,-999,0.00,,,-99.99,,2013-10-10 11:42:00,
2013-10-10 07:52:00,49.0,-99.9,30.24,North,6,5.0,7.0,-999,0.00,,,-99.99,,2013-10-10 11:52:00,
2013-10-10 08:42:00,49.0,-99.9,30.24,North,6,5.0,7.0,-999,0.00,,,-99.99,,2013-10-10 12:42:00,
2013-10-10 08:52:00,49.0,-99.9,30.24,North,10,-999.0,-999.0,-999,0.00,,,-99.99,,2013-10-10 12:52:00,
2013-10-10 09:42:00,49.0,-99.9,30.24,North,10,-999.0,-999.0,-999,0.00,,,-99.99,,2013-10-10 13:42:00,
2013-10-10 09:52:00,49.0,-99.9,30.24,North,6,8.0,8.0,-999,0.00,,,-99.99,,2013-10-10 13:52:00,
2013-10-10 10:42:00,49.0,-99.9,30.24,North,6,8.0,8.0,-999,0.00,,,-99.99,,2013-10-10 14:42:00,
2013-10-10 10:52:00,51.0,-99.9,30.23,North,11,-999.0,9.0,-999,0.00,,,-99.99,,2013-10-10 14:52:00,
2013-10-10 11:43:00,51.0,-99.9,30.23,North,11,-999.0,9.0,-999,0.00,,,-99.99,,2013-10-10 15:43:00,
2013-10-10 11:52:00,54.0,-99.9,30.22,NE,49,5.0,7.0,-999,0.00,,,-99.99,,2013-10-10 15:52:00,
2013-10-10 12:42:00,54.0,-99.9,30.22,NE,49,5.0,7.0,-999,0.00,,,-99.99,,2013-10-10 16:42:00,
2013-10-10 12:52:00,56.0,-99.9,30.19,NNE,30,6.0,10.0,-999,0.00,,,-99.99,,2013-10-10 16:52:00,
2013-10-10 13:42:00,56.0,-99.9,30.19,NNE,30,6.0,10.0,-999,0.00,,,-99.99,,2013-10-10 17:42:00,
2013-10-10 13:52:00,57.0,-99.9,30.17,North,-999,6.0,8.0,-999,0.00,,,-99.99,,2013-10-10 17:52:00,
2013-10-10 14:42:00,57.0,-99.9,30.17,North,-999,6.0,8.0,-999,0.00,,,-99.99,,2013-10-10 18:42:00,
2013-10-10 14:52:00,57.0,-99.9,30.15,NNE,30,3.0,10.0,-999,0.00,,,-99.99,,2013-10-10 18:52:00,
2013-10-10 15:42:00,57.0,-99.9,30.15,NNE,30,3.0,10.0,-999,0.00,,,-99.99,,2013-10-10 19:42:00,
2013-10-10 15:52:00,57.0,-99.9,30.14,SE,145,-999.0,13.0,-999,0.00,,,-99.99,,2013-10-10 19:52:00,
2013-10-10 16:42:00,57.0,-99.9,30.14,SE,145,-999.0,13.0,-999,0.00,,,-99.99,,2013-10-10 20:42:00,
2013-10-10 16:52:00,57.0,-99.9,30.12,ENE,64,4.0,6.0,-999,0.00,,,-99.99,,2013-10-10 20:52:00,
2013-10-10 17:44:00,57.0,-99.9,30.12,ENE,64,4.0,6.0,-999,0.00,,,-99.99,,2013-10-10 21:44:00,
2013-10-10 17:52:00,56.0,-99.9,30.12,WNW,293,-999.0,8.0,-999,0.00,,,-99.99,,2013-10-10 21:52:00,
2013-10-10 18:43:00,56.0,-99.9,30.12,WNW,293,-999.0,8.0,-999,0.00,,,-99.99,,2013-10-10 22:43:00,
2013-10-10 18:52:00,56.0,-99.9,30.12,ENE,62,7.0,11.0,-999,0.00,,,-99.99,,2013-10-10 22:52:00,
2013-10-10 19:43:00,56.0,-99.9,30.12,ENE,62,7.0,11.0,-999,0.00,,,-99.99,,2013-10-10 23:43:00,
2013-10-10 19:52:00,56.0,-99.9,30.12,NNE,23,-999.0,9.0,-999,0.00,,,-99.99,,2013-10-10 23:52:00,
2013-10-10 20:42:00,56.0,-99.9,30.12,NNE,23,-999.0,9.0,-999,0.00,,,-99.99,,2013-10-11 00:42:00,
2013-10-10 20:52:00,52.0,-99.9,30.12,North,9,3.0,4.0,-999,0.00,,,-99.99,,2013-10-11 00:52:00,
2013-10-10 21:42:00,52.0,-99.9,30.12,North,9,3.0,4.0,-999,0.00,,,-99.99,,2013-10-11 01:42:00,
2013-10-10 21:52:00,54.0,-99.9,30.10,NE,34,7.0,10.0,-999,0.00,,,-99.99,,2013-10-11 01:52:00,
2013-10-10 22:42:00,54.0,-99.9,30.10,NE,34,7.0,10.0,-999,0.00,,,-99.99,,2013-10-11 02:42:00,
2013-10-10 22:52:00,55.0,-99.9,30.11,North,7,-999.0,6.0,-999,0.00,,,-99.99,,2013-10-11 02:52:00,
2013-10-10 23:45:00,55.0,-99.9,30.11,North,7,-999.0,6.0,-999,0.00,,,-99.99,,2013-10-11 03:45:00,
2013-10-10 23:52:00,55.0,-99.9,30.09,North,11,-999.0,9.0,-999,0.00,,,-99.99,,2013-10-11 03:52:00,